WESTERLY ARPT, RI current weather conditions

sailwx.info

Wind from 290 at 5 knots

Air temperature 5.0° C
Visibility: greater than 8.7 NM
Dewpoint -8.0° C

Last reported at 2019-Dec-05 21:10 UTC.
Time now 2019-Dec-05 21:53 UTC

Location: N 41°21' W 071°48'.
View on Google Maps.

See reports from other nearby stations

  
Tides and Currents Weather Stations Pressure Air Temp Water Temp Dewpoint Dewpoint Depression Visibility Wind Speed Wind Dir Waves Ship Positions
date/time (UTC)wind fromknots sea level pressurealtimeterstation pressurevisibilityair tempwater tempwave heightnotes
2019-Dec-05 21:10 290 5 8.7 5.0
2019-Dec-05 21:05 290 5 8.7 5.0
2019-Dec-05 21:00 290 6 8.7 5.0
2019-Dec-05 20:55 290 4 8.7 5.0
2019-Dec-05 20:53 290 6 8.7 5.0
2019-Dec-05 20:50 290 7 8.7 5.0
2019-Dec-05 20:45 280 8 8.7 5.0
2019-Dec-05 20:40 290 11 8.7 5.0
2019-Dec-05 20:35 290 6 8.7 6.0
2019-Dec-05 20:30 290 8 8.7 6.0
2019-Dec-05 20:25 290 9 8.7 6.0
2019-Dec-05 20:20 290 5 8.7 6.0
2019-Dec-05 20:15 290 7 8.7 6.0
2019-Dec-05 20:10 290 8 8.7 6.0
2019-Dec-05 20:05 280 9 gusting 14 8.7 6.0
2019-Dec-05 20:00 280 7 8.7 6.0
2019-Dec-05 19:55 290 8 8.7 6.0
2019-Dec-05 19:53 280 6 gusting 15 8.7 5.6
2019-Dec-05 19:50 290 7 8.7 6.0
2019-Dec-05 19:45 280 9 gusting 14 8.7 6.0
2019-Dec-05 19:40 300 12 8.7 6.0
2019-Dec-05 19:35 300 8 8.7 6.0
2019-Dec-05 19:30 290 8 8.7 6.0
2019-Dec-05 19:25 300 11 gusting 16 8.7 6.0
2019-Dec-05 19:20 310 7 8.7 6.0
2019-Dec-05 19:15 310 9 gusting 15 8.7 6.0
2019-Dec-05 19:10 310 10 gusting 19 8.7 6.0
2019-Dec-05 19:05 300 11 gusting 18 8.7 7.0
2019-Dec-05 19:00 310 10 gusting 18 8.7 7.0
2019-Dec-05 18:55 310 6 8.7 7.0
2019-Dec-05 18:53 300 6 gusting 15 8.7 6.7
2019-Dec-05 18:50 310 7 8.7 7.0
2019-Dec-05 18:45 280 10 8.7 7.0
2019-Dec-05 18:40 300 9 gusting 16 8.7 7.0
2019-Dec-05 18:35 290 7 8.7 7.0
2019-Dec-05 18:25 290 14 gusting 20 8.7 7.0
2019-Dec-05 18:20 290 10 gusting 18 8.7 7.0
2019-Dec-05 18:15 300 10 gusting 16 8.7 7.0
2019-Dec-05 18:10 310 8 8.7 7.0
2019-Dec-05 18:05 300 10 gusting 16 8.7 7.0
2019-Dec-05 18:00 290 11 gusting 16 8.7 7.0
2019-Dec-05 17:55 280 15 gusting 23 8.7 7.0
2019-Dec-05 17:53 290 9 gusting 21 8.7 7.2
2019-Dec-05 17:50 300 7 8.7 7.0
2019-Dec-05 17:45 300 11 gusting 19 8.7 8.0
2019-Dec-05 17:40 300 9 gusting 16 8.7 7.0
2019-Dec-05 17:35 290 9 gusting 16 8.7 7.0
2019-Dec-05 17:30 300 8 8.7 7.0
2019-Dec-05 17:25 280 6 8.7 7.0
2019-Dec-05 17:20 280 7 8.7 7.0
2019-Dec-05 17:15 280 12 gusting 18 8.7 7.0
2019-Dec-05 17:10 280 10 8.7 7.0
2019-Dec-05 17:00 290 11 gusting 17 8.7 7.0
2019-Dec-05 16:55 290 7 8.7 7.0
2019-Dec-05 16:53 310 7 gusting 17 8.7 6.7
2019-Dec-05 16:50 300 11 8.7 7.0
2019-Dec-05 16:45 300 9 8.7 7.0
2019-Dec-05 16:25 280 10 gusting 15 8.7 6.0
2019-Dec-05 16:20 300 9 gusting 15 8.7 7.0
2019-Dec-05 16:15 290 11 8.7 6.0
2019-Dec-05 16:10 280 11 gusting 18 8.7 7.0
2019-Dec-05 16:05 300 6 8.7 7.0
2019-Dec-05 16:00 310 12 gusting 20 8.7 7.0
2019-Dec-05 15:55 310 8 8.7 7.0
2019-Dec-05 15:53 300 8 gusting 20 8.7 6.7
2019-Dec-05 15:50 290 7 8.7 7.0
2019-Dec-05 15:45 290 12 gusting 20 8.7 7.0
2019-Dec-05 15:40 300 8 8.7 7.0
2019-Dec-05 15:35 290 8 8.7 7.0
2019-Dec-05 15:30 300 8 8.7 7.0
2019-Dec-05 15:25 310 7 8.7 7.0
2019-Dec-05 15:20 290 8 8.7 7.0
2019-Dec-05 15:15 300 4 8.7 7.0
2019-Dec-05 15:10 310 6 8.7 7.0
2019-Dec-05 15:05 290 7 8.7 7.0
2019-Dec-05 15:00 300 6 8.7 6.0
2019-Dec-05 14:55 290 5 8.7 6.0
2019-Dec-05 14:53 300 6 8.7 6.1
2019-Dec-05 14:45 290 7 8.7 6.0
2019-Dec-05 14:40 300 4 8.7 6.0
2019-Dec-05 14:35 300 5 8.7 6.0
2019-Dec-05 14:30 290 3 8.7 5.0
2019-Dec-05 14:25 290 4 8.7 5.0
2019-Dec-05 14:20 290 5 8.7 4.0
2019-Dec-05 14:15 300 4 8.7 5.0
2019-Dec-05 14:10 270 5 8.7 4.0
2019-Dec-05 14:05 280 5 8.7 4.0
2019-Dec-05 14:00 280 4 8.7 4.0
2019-Dec-05 13:55 270 5 8.7 4.0
2019-Dec-05 13:53 8.7 3.9
2019-Dec-05 13:50 270 4 8.7 4.0
2019-Dec-05 13:45 280 4 8.7 3.0
2019-Dec-05 13:40 280 3 8.7 3.0
2019-Dec-05 13:35 270 3 7.8 3.0
2019-Dec-05 13:30 250 3 7.8 3.0
2019-Dec-05 13:25 7.8 3.0
2019-Dec-05 13:20 7.8 3.0
2019-Dec-05 13:15 7.8 2.0
2019-Dec-05 13:10 7.0 2.0
2019-Dec-05 13:05 280 3 7.0 2.0
2019-Dec-05 13:00 7.0 2.0
2019-Dec-05 12:55 7.0 2.0
2019-Dec-05 12:53 280 2 6.9 2.2
2019-Dec-05 12:50 280 3 7.0 2.0
2019-Dec-05 12:45 6.1 2.0
2019-Dec-05 12:40 260 3 6.1 2.0
2019-Dec-05 12:35 6.1 2.0
2019-Dec-05 12:30 6.1 2.0
2019-Dec-05 12:25 260 3 6.1 2.0
2019-Dec-05 12:15 5.2 2.0 Haze.
2019-Dec-05 12:10 290 3 6.1 2.0
2019-Dec-05 12:05 6.1 2.0
2019-Dec-05 12:00 270 3 7.0 2.0
2019-Dec-05 11:55 270 3 7.0 2.0
2019-Dec-05 11:53 270 2 6.1 1.7
2019-Dec-05 11:45 6.1 2.0
2019-Dec-05 11:40 6.1 2.0
2019-Dec-05 11:35 6.1 2.0
2019-Dec-05 11:30 6.1 2.0
2019-Dec-05 11:25 250 4 6.1 2.0
2019-Dec-05 11:20 260 3 6.1 2.0
2019-Dec-05 11:15 6.1 2.0
2019-Dec-05 11:10 270 3 6.1 1.0
2019-Dec-05 11:05 280 4 6.1 1.0
2019-Dec-05 11:00 6.1 1.0
2019-Dec-05 10:55 6.1 1.0
2019-Dec-05 10:53 6.1 1.1
2019-Dec-05 10:50 6.1 1.0
2019-Dec-05 10:45 280 3 6.1 1.0
2019-Dec-05 10:40 6.1 1.0
2019-Dec-05 10:35 5.2 1.0 Haze.
2019-Dec-05 10:30 5.2 1.0 Haze.
2019-Dec-05 10:25 5.2 1.0 Haze.
2019-Dec-05 10:20 5.2 1.0 Haze.
2019-Dec-05 10:15 5.2 1.0 Haze.
2019-Dec-05 10:10 5.2 1.0 Haze.
2019-Dec-05 10:05 5.2 1.0 Haze.
2019-Dec-05 10:00 5.2 1.0 Haze.
2019-Dec-05 09:55 5.2 1.0 Haze.
2019-Dec-05 09:53 5.2 1.1 Haze.
2019-Dec-05 09:50 5.2 1.0 Haze.
2019-Dec-05 09:45 5.2 1.0 Haze.
2019-Dec-05 09:40 5.2 1.0 Haze.
2019-Dec-05 09:35 5.2 1.0 Haze.
2019-Dec-05 09:30 5.2 1.0 Haze.
2019-Dec-05 09:20 260 3 5.2 1.0 Haze.
2019-Dec-05 09:15 5.2 1.0 Haze.
2019-Dec-05 09:10 270 4 5.2 1.0 Haze.
2019-Dec-05 09:05 260 3 5.2 1.0 Haze.
2019-Dec-05 09:00 260 4 5.2 1.0 Haze.
2019-Dec-05 08:55 260 4 5.2 1.0 Haze.
2019-Dec-05 08:53 260 4 5.2 1.1 Haze.
2019-Dec-05 08:50 260 4 5.2 1.0 Haze.
2019-Dec-05 08:45 260 4 5.2 1.0 Haze.
2019-Dec-05 08:40 260 3 5.2 1.0 Haze.
2019-Dec-05 08:35 270 3 5.2 1.0 Haze.
2019-Dec-05 08:30 5.2 1.0 Haze.
2019-Dec-05 08:20 260 3 5.2 1.0 Haze.
2019-Dec-05 08:15 270 3 5.2 1.0 Haze.
2019-Dec-05 08:05 290 3 6.1 1.0
2019-Dec-05 08:00 270 3 6.1 1.0
2019-Dec-05 07:53 260 2 6.1 1.1
2019-Dec-05 07:45 270 3 6.1 1.0
2019-Dec-05 07:40 280 3 6.1 1.0
2019-Dec-05 07:35 270 4 6.1 1.0
2019-Dec-05 07:30 280 4 6.1 1.0
2019-Dec-05 07:25 270 4 6.1 1.0
2019-Dec-05 07:20 270 4 6.1 1.0
2019-Dec-05 07:10 270 3 6.1 1.0
2019-Dec-05 07:05 260 3 6.1 1.0
2019-Dec-05 07:00 6.1 1.0
2019-Dec-05 06:53 6.1 0.6
2019-Dec-05 06:50 6.1 1.0
2019-Dec-05 06:40 6.1 1.0
2019-Dec-05 06:35 270 3 6.1 1.0
2019-Dec-05 06:30 260 3 6.1 1.0
2019-Dec-05 06:25 260 3 6.1 1.0
2019-Dec-05 06:20 260 3 7.0 1.0
2019-Dec-05 06:15 260 3 7.0 1.0
2019-Dec-05 06:10 270 4 7.0 1.0
2019-Dec-05 06:05 280 3 7.0 1.0
2019-Dec-05 06:00 270 3 7.0 1.0
2019-Dec-05 05:55 6.1-0.0
2019-Dec-05 05:53 270 2 6.1-0.0
2019-Dec-05 05:50 260 3 6.1-0.0
2019-Dec-05 05:45 270 3 7.0-0.0
2019-Dec-05 05:40 260 3 7.0-0.0
2019-Dec-05 05:30 260 3 7.0-0.0
2019-Dec-05 05:25 260 3 7.0 1.0
2019-Dec-05 05:20 270 3 7.0 1.0
2019-Dec-05 05:15 270 3 7.8 1.0
2019-Dec-05 05:10 7.8 1.0
2019-Dec-05 05:05 270 3 7.8 1.0
2019-Dec-05 05:00 270 3 7.8 1.0
2019-Dec-05 04:55 260 3 7.8 1.0
2019-Dec-05 04:53 260 2 7.8 0.6
2019-Dec-05 04:50 250 3 7.8 1.0
2019-Dec-05 04:45 7.8 1.0
2019-Dec-05 04:40 250 3 7.8 1.0
2019-Dec-05 04:35 260 3 7.8 1.0
2019-Dec-05 04:25 260 3 8.7 1.0
2019-Dec-05 04:15 250 4 7.8 1.0
2019-Dec-05 04:05 250 3 8.7 1.0
2019-Dec-05 03:53 230 4 8.7 0.6
2019-Dec-05 03:40 8.7 1.0
2019-Dec-05 03:35 8.7 1.0
2019-Dec-05 03:30 8.7 2.0
2019-Dec-05 03:25 8.7 2.0
2019-Dec-05 03:20 8.7 2.0
2019-Dec-05 03:15 8.7 2.0
2019-Dec-05 03:10 270 3 8.7 2.0
2019-Dec-05 03:05 260 3 8.7 2.0
2019-Dec-05 03:00 8.7 2.0
2019-Dec-05 02:55 8.7 2.0
2019-Dec-05 02:53 8.7 2.2
2019-Dec-05 02:50 8.7 2.0
2019-Dec-05 02:45 260 3 8.7 2.0
2019-Dec-05 02:40 270 3 8.7 2.0
2019-Dec-05 02:35 260 3 8.7 2.0
2019-Dec-05 02:30 270 3 8.7 2.0
2019-Dec-05 02:25 260 3 8.7 2.0
2019-Dec-05 02:20 260 3 8.7 3.0
2019-Dec-05 02:15 260 4 8.7 3.0
2019-Dec-05 02:10 270 3 8.7 3.0
2019-Dec-05 02:05 270 4 8.7 3.0
2019-Dec-05 02:00 270 3 8.7 3.0
2019-Dec-05 01:55 280 4 8.7 3.0
2019-Dec-05 01:53 280 4 8.7 2.8
2019-Dec-05 01:50 290 4 8.7 3.0
2019-Dec-05 01:45 270 4 8.7 3.0
2019-Dec-05 01:40 260 4 8.7 3.0
2019-Dec-05 01:35 260 4 8.7 3.0
2019-Dec-05 01:30 270 4 8.7 3.0
2019-Dec-05 01:25 270 4 8.7 3.0
2019-Dec-05 01:20 280 4 8.7 3.0
2019-Dec-05 01:15 290 3 8.7 3.0
2019-Dec-05 01:10 270 5 8.7 3.0
2019-Dec-05 01:05 270 4 8.7 3.0
2019-Dec-05 01:00 260 3 8.7 3.0
2019-Dec-05 00:55 280 3 8.7 3.0
2019-Dec-05 00:53 280 2 8.7 2.8
2019-Dec-05 00:50 270 3 8.7 3.0
2019-Dec-05 00:45 270 3 8.7 3.0
2019-Dec-05 00:40 8.7 3.0
2019-Dec-05 00:35 8.7 3.0
2019-Dec-05 00:30 8.7 3.0
2019-Dec-05 00:25 8.7 3.0
2019-Dec-05 00:20 8.7 3.0
2019-Dec-05 00:15 8.7 3.0
2019-Dec-05 00:10 270 3 8.7 3.0
2019-Dec-05 00:05 8.7 3.0
2019-Dec-05 00:00 8.7 3.0
2019-Dec-04 23:55 8.7 3.0
2019-Dec-04 23:53 8.7 3.3
2019-Dec-04 23:50 280 3 8.7 3.0
2019-Dec-04 23:45 8.7 3.0
2019-Dec-04 23:40 8.7 3.0
2019-Dec-04 23:35 8.7 3.0
2019-Dec-04 23:30 8.7 3.0
2019-Dec-04 23:25 8.7 3.0
2019-Dec-04 23:20 8.7 3.0
2019-Dec-04 23:15 280 3 8.7 3.0
2019-Dec-04 23:05 270 3 8.7 3.0
2019-Dec-04 22:55 8.7 3.0
2019-Dec-04 22:53 8.7 2.8
2019-Dec-04 22:50 8.7 3.0
2019-Dec-04 22:45 8.7 3.0
2019-Dec-04 22:35 8.7 3.0
2019-Dec-04 22:25 8.7 3.0
2019-Dec-04 22:20 8.7 3.0
2019-Dec-04 22:15 8.7 3.0
2019-Dec-04 22:10 8.7 3.0
2019-Dec-04 22:00 8.7 3.0
2019-Dec-04 21:55 250 3 8.7 3.0
2019-Dec-04 21:53 8.7 3.3
2019-Dec-04 21:50 270 3 8.7 3.0
2019-Dec-04 21:40 260 3 8.7 3.0
2019-Dec-04 21:30 8.7 3.0
2019-Dec-04 21:25 260 4 8.7 3.0
2019-Dec-04 21:20 250 4 8.7 3.0
2019-Dec-04 21:15 250 4 8.7 4.0
2019-Dec-04 21:10 240 3 8.7 4.0
2019-Dec-04 21:00 260 4 8.7 4.0
2019-Dec-04 20:55 250 4 8.7 4.0
2019-Dec-04 20:53 240 4 8.7 3.9
2019-Dec-04 20:50 260 4 8.7 4.0
2019-Dec-04 20:45 250 3 8.7 4.0
2019-Dec-04 20:30 260 3 8.7 4.0
2019-Dec-04 20:25 250 4 8.7 4.0
2019-Dec-04 20:20 250 3 8.7 4.0
2019-Dec-04 20:15 240 5 8.7 4.0
2019-Dec-04 20:10 250 4 8.7 4.0
2019-Dec-04 20:05 240 3 8.7 4.0
2019-Dec-04 20:00 240 3 8.7 4.0
2019-Dec-04 19:55 250 4 8.7 4.0
2019-Dec-04 19:53 250 5 8.7 4.4
2019-Dec-04 19:50 240 4 8.7 4.0
2019-Dec-04 19:45 240 4 8.7 4.0
2019-Dec-04 19:40 250 5 8.7 4.0
2019-Dec-04 19:35 240 5 8.7 4.0
2019-Dec-04 19:30 250 5 8.7 4.0
2019-Dec-04 19:25 250 5 8.7 4.0
2019-Dec-04 19:20 260 4 8.7 4.0
2019-Dec-04 19:15 250 6 8.7 4.0
2019-Dec-04 19:10 250 4 8.7 4.0
2019-Dec-04 19:05 260 7 8.7 5.0
2019-Dec-04 19:00 260 6 8.7 5.0
2019-Dec-04 18:55 260 6 8.7 5.0
2019-Dec-04 18:53 240 6 8.7 5.0
2019-Dec-04 18:50 250 5 8.7 4.0
2019-Dec-04 18:45 250 6 8.7 4.0
2019-Dec-04 18:40 240 7 8.7 4.0
2019-Dec-04 18:38 240 6 8.7 4.4
2019-Dec-04 18:35 250 5 8.7 4.0
2019-Dec-04 18:30 240 7 8.7 4.0
2019-Dec-04 18:25 250 6 8.7 4.0
2019-Dec-04 18:20 240 5 8.7 5.0
2019-Dec-04 18:15 250 6 8.7 4.0
2019-Dec-04 18:10 250 5 8.7 4.0
2019-Dec-04 18:05 250 4 8.7 4.0
2019-Dec-04 18:00 260 4 8.7 4.0
2019-Dec-04 17:55 260 6 8.7 4.0
2019-Dec-04 17:53 250 5 8.7 4.4
2019-Dec-04 17:50 240 4 8.7 4.0
2019-Dec-04 17:45 250 4 8.7 4.0
2019-Dec-04 17:44 250 2 8.7 4.4
2019-Dec-04 17:40 240 4 8.7 4.0
2019-Dec-04 17:35 250 3 8.7 4.0
2019-Dec-04 17:32 8.7 4.4
2019-Dec-04 17:30 280 4 8.7 4.0
2019-Dec-04 17:25 260 3 8.7 4.0
2019-Dec-04 17:20 260 4 8.7 4.0
2019-Dec-04 17:15 270 3 8.7 4.0
2019-Dec-04 17:10 270 4 8.7 4.0
2019-Dec-04 17:05 250 5 8.7 4.0
2019-Dec-04 17:00 270 4 8.7 4.0
2019-Dec-04 16:55 270 3 8.7 4.0
2019-Dec-04 16:53 270 5 8.7 4.4
2019-Dec-04 16:50 280 6 8.7 4.0
2019-Dec-04 16:45 270 4 8.7 4.0
2019-Dec-04 16:40 250 4 8.7 4.0
2019-Dec-04 16:35 270 4 8.7 4.0
2019-Dec-04 16:30 250 6 8.7 4.0
2019-Dec-04 16:25 260 5 8.7 4.0
2019-Dec-04 16:20 260 3 8.7 4.0
2019-Dec-04 16:15 240 4 8.7 4.0
2019-Dec-04 16:10 250 5 8.7 4.0
2019-Dec-04 16:05 250 8 8.7 4.0
2019-Dec-04 15:55 240 6 8.7 4.0
2019-Dec-04 15:53 250 6 8.7 4.4
2019-Dec-04 15:50 250 5 8.7 4.0
2019-Dec-04 15:45 240 6 8.7 4.0
2019-Dec-04 15:40 250 7 8.7 4.0
2019-Dec-04 15:35 260 6 8.7 4.0
2019-Dec-04 15:30 260 5 8.7 4.0
2019-Dec-04 15:25 260 5 8.7 4.0
2019-Dec-04 15:20 270 6 8.7 4.0
2019-Dec-04 15:10 270 3 8.7 4.0
2019-Dec-04 14:55 280 3 8.7 4.0
2019-Dec-04 14:53 8.7 3.9
2019-Dec-04 14:35 260 4 8.7 3.0
2019-Dec-04 14:25 280 3 8.7 2.0
2019-Dec-04 14:20 8.7 2.0
2019-Dec-04 14:15 280 3 8.7 2.0
2019-Dec-04 14:10 280 3 8.7 2.0
2019-Dec-04 14:05 270 5 8.7 2.0
2019-Dec-04 14:00 290 3 8.7 2.0
2019-Dec-04 13:55 270 4 8.7 2.0
2019-Dec-04 13:53 8.7 2.2
2019-Dec-04 13:45 280 3 8.7 2.0
2019-Dec-04 13:35 8.7 2.0
2019-Dec-04 13:30 250 3 8.7 2.0
2019-Dec-04 13:25 260 3 8.7 2.0
2019-Dec-04 13:20 250 4 8.7 1.0
2019-Dec-04 13:15 260 3 8.7 1.0
2019-Dec-04 13:10 260 4 8.7 1.0
2019-Dec-04 13:05 250 4 8.7 1.0
2019-Dec-04 13:00 260 3 8.7 1.0
2019-Dec-04 12:55 260 4 8.7 1.0
2019-Dec-04 12:53 250 2 8.7 1.1
2019-Dec-04 12:45 260 3 8.7 1.0
2019-Dec-04 12:40 260 4 8.7 1.0
2019-Dec-04 12:35 270 4 8.7 1.0
2019-Dec-04 12:30 260 3 8.7 1.0
2019-Dec-04 12:25 270 3 8.7 1.0
2019-Dec-04 12:20 270 4 8.7 1.0
2019-Dec-04 12:15 270 4 8.7 1.0
2019-Dec-04 12:10 240 5 8.7 1.0
2019-Dec-04 12:05 240 5 8.7 1.0
2019-Dec-04 12:00 240 5 8.7 1.0
2019-Dec-04 11:55 240 4 8.7 1.0
2019-Dec-04 11:53 260 2 8.7 0.6
2019-Dec-04 11:50 280 3 8.7 1.0
2019-Dec-04 11:45 260 3 8.7 1.0
2019-Dec-04 11:40 270 3 8.7 1.0
2019-Dec-04 11:30 250 5 8.7-0.0
2019-Dec-04 11:25 240 6 8.7-0.0
2019-Dec-04 11:20 240 5 8.7-0.0
2019-Dec-04 11:15 260 4 8.7-0.0
2019-Dec-04 11:10 220 3 8.7-0.0
2019-Dec-04 11:05 8.7-0.0
2019-Dec-04 11:00 8.7-0.0
2019-Dec-04 10:55 280 3 8.7-0.0
2019-Dec-04 10:53 8.7-0.0
2019-Dec-04 10:50 270 4 8.7-0.0
2019-Dec-04 10:45 250 6 8.7-0.0
2019-Dec-04 10:40 250 5 8.7-0.0
2019-Dec-04 10:35 250 5 8.7-0.0
2019-Dec-04 10:30 250 5 8.7-0.0
2019-Dec-04 10:25 250 5 8.7-0.0
2019-Dec-04 10:20 260 4 8.7-0.0
2019-Dec-04 10:15 250 6 8.7-0.0
2019-Dec-04 10:10 250 5 8.7-1.0
2019-Dec-04 10:05 250 5 8.7-1.0
2019-Dec-04 10:00 240 5 8.7-1.0
2019-Dec-04 09:53 260 5 8.7-0.6
2019-Dec-04 09:50 250 5 8.7-1.0
2019-Dec-04 09:45 260 4 8.7-1.0
2019-Dec-04 09:40 260 5 8.7-1.0
2019-Dec-04 09:35 260 4 8.7-1.0
2019-Dec-04 09:30 260 4 8.7-1.0
2019-Dec-04 09:25 270 4 8.7-1.0
2019-Dec-04 09:20 270 5 8.7-1.0
2019-Dec-04 09:15 280 3 8.7-1.0
2019-Dec-04 09:10 270 4 8.7-1.0
2019-Dec-04 09:05 280 4 8.7-1.0
2019-Dec-04 09:00 300 3 8.7-1.0
2019-Dec-04 08:55 8.7-1.0
2019-Dec-04 08:53 8.7-1.1
2019-Dec-04 08:50 8.7-1.0
2019-Dec-04 08:45 8.7-2.0
2019-Dec-04 08:40 8.7-2.0
2019-Dec-04 08:35 220 3 8.7-2.0
2019-Dec-04 08:30 8.7-2.0
2019-Dec-04 08:25 8.7-2.0
2019-Dec-04 08:20 060 3 8.7-2.0
2019-Dec-04 08:10 8.7-1.0
2019-Dec-04 08:05 8.7-1.0
2019-Dec-04 08:00 8.7-1.0
2019-Dec-04 07:55 250 3 8.7-1.0
2019-Dec-04 07:53 250 2 8.7-0.6
2019-Dec-04 07:50 240 3 8.7-1.0
2019-Dec-04 07:45 240 3 8.7-1.0
2019-Dec-04 07:40 250 4 8.7-1.0
2019-Dec-04 07:35 280 3 8.7-1.0
2019-Dec-04 07:30 280 4 8.7-1.0
2019-Dec-04 07:25 270 4 8.7-1.0
2019-Dec-04 07:20 280 4 8.7-1.0
2019-Dec-04 07:15 270 4 8.7-1.0
2019-Dec-04 07:10 270 5 8.7-1.0
2019-Dec-04 07:05 280 5 8.7-1.0
2019-Dec-04 07:00 280 4 8.7-1.0
2019-Dec-04 06:55 300 4 8.7-1.0
2019-Dec-04 06:53 8.7-0.6
2019-Dec-04 06:50 330 4 8.7-1.0
2019-Dec-04 06:45 330 4 8.7-1.0
2019-Dec-04 06:40 320 4 8.7-1.0
2019-Dec-04 06:35 310 3 8.7-1.0
2019-Dec-04 06:30 290 3 8.7-1.0
2019-Dec-04 06:25 8.7-1.0
2019-Dec-04 06:20 290 3 8.7-1.0
2019-Dec-04 06:15 290 3 8.7-1.0
2019-Dec-04 06:10 280 3 8.7-1.0
2019-Dec-04 06:05 300 4 8.7-1.0
2019-Dec-04 06:00 280 4 8.7-1.0
2019-Dec-04 05:55 300 3 8.7-1.0
2019-Dec-04 05:53 290 4 8.7-0.6
2019-Dec-04 05:50 300 3 8.7-1.0
2019-Dec-04 05:45 270 3 8.7-1.0
2019-Dec-04 05:40 8.7-1.0
2019-Dec-04 05:35 250 5 8.7-1.0
2019-Dec-04 05:30 270 5 8.7-1.0
2019-Dec-04 05:25 270 4 8.7-1.0
2019-Dec-04 05:20 280 3 8.7-1.0
2019-Dec-04 05:15 290 4 8.7-1.0
2019-Dec-04 05:10 290 4 8.7-1.0
2019-Dec-04 05:05 280 4 8.7-1.0
2019-Dec-04 05:00 260 5 8.7-1.0
2019-Dec-04 04:55 270 4 8.7-1.0
2019-Dec-04 04:53 270 5 8.7-0.6
2019-Dec-04 04:50 270 5 8.7-1.0
2019-Dec-04 04:45 260 4 8.7-1.0
2019-Dec-04 04:40 8.7-1.0
2019-Dec-04 04:35 260 3 8.7-1.0
2019-Dec-04 04:30 260 5 8.7-0.0
2019-Dec-04 04:25 260 4 8.7-1.0
2019-Dec-04 04:20 270 4 8.7-0.0
2019-Dec-04 04:15 270 5 8.7-0.0
2019-Dec-04 04:10 280 4 8.7-0.0
2019-Dec-04 04:05 280 5 8.7-0.0
2019-Dec-04 04:00 280 6 8.7-0.0
2019-Dec-04 03:55 290 5 8.7-0.0
2019-Dec-04 03:53 8.7-0.0
2019-Dec-04 03:50 290 3 8.7-0.0
2019-Dec-04 03:45 300 6 8.7-0.0
2019-Dec-04 03:40 300 6 8.7-0.0
2019-Dec-04 03:35 280 7 8.7-0.0
2019-Dec-04 03:30 290 6 8.7-0.0
2019-Dec-04 03:25 290 7 8.7-0.0
2019-Dec-04 03:20 300 7 8.7-0.0
2019-Dec-04 03:15 290 8 8.7-0.0
2019-Dec-04 03:10 290 5 8.7-0.0
2019-Dec-04 03:05 270 8 8.7-0.0
2019-Dec-04 02:55 280 7 8.7-0.0
2019-Dec-04 02:53 290 6 8.7-0.0
2019-Dec-04 02:50 290 9 8.7-0.0
2019-Dec-04 02:45 300 6 8.7-0.0
2019-Dec-04 02:40 290 7 8.7-0.0
2019-Dec-04 02:35 290 5 8.7-0.0
2019-Dec-04 02:30 290 5 8.7-0.0
2019-Dec-04 02:25 280 8 8.7-0.0
2019-Dec-04 02:20 290 7 8.7-0.0
2019-Dec-04 02:15 280 7 8.7-0.0
2019-Dec-04 02:10 280 7 8.7-0.0
2019-Dec-04 02:05 280 7 8.7-0.0
2019-Dec-04 02:00 280 7 8.7 1.0
2019-Dec-04 01:53 290 6 8.7 0.6
2019-Dec-04 01:40 300 6 8.7 1.0
2019-Dec-04 01:35 290 6 8.7 1.0
2019-Dec-04 01:30 300 5 8.7 1.0
2019-Dec-04 01:25 290 5 8.7 1.0
2019-Dec-04 01:20 300 9 8.7 1.0
2019-Dec-04 01:15 310 7 8.7 1.0
2019-Dec-04 01:10 310 7 8.7 1.0
2019-Dec-04 01:05 300 6 8.7 1.0
2019-Dec-04 01:00 300 6 8.7 1.0
2019-Dec-04 00:55 300 6 8.7 1.0
2019-Dec-04 00:53 300 7 8.7 1.1
2019-Dec-04 00:50 290 8 8.7 1.0
2019-Dec-04 00:45 300 6 8.7 1.0
2019-Dec-04 00:40 290 6 8.7 1.0
2019-Dec-04 00:35 290 6 8.7 1.0
2019-Dec-04 00:30 290 7 8.7 1.0
2019-Dec-04 00:25 300 6 8.7 1.0
2019-Dec-04 00:20 290 6 8.7 1.0
2019-Dec-04 00:15 280 8 8.7 1.0
2019-Dec-04 00:10 290 8 8.7 1.0
2019-Dec-04 00:05 290 6 8.7 1.0
2019-Dec-04 00:00 280 4 8.7 1.0
2019-Dec-03 23:53 280 6 8.7 1.1
2019-Dec-03 23:50 280 6 8.7 1.0
2019-Dec-03 23:40 300 5 8.7 1.0
2019-Dec-03 23:30 290 5 8.7 1.0
2019-Dec-03 23:25 300 4 8.7 1.0
2019-Dec-03 23:20 300 4 8.7 1.0
2019-Dec-03 23:15 280 7 8.7 1.0
2019-Dec-03 23:10 310 5 8.7 1.0
2019-Dec-03 23:05 290 6 8.7 2.0
2019-Dec-03 23:00 300 5 8.7 1.0
2019-Dec-03 22:55 290 5 8.7 1.0
2019-Dec-03 22:53 8.7 1.1
2019-Dec-03 22:50 280 5 8.7 2.0
2019-Dec-03 22:40 290 5 8.7 2.0
2019-Dec-03 22:35 290 4 8.7 2.0
2019-Dec-03 22:30 290 5 8.7 2.0
2019-Dec-03 22:25 290 4 8.7 2.0
2019-Dec-03 22:20 290 6 8.7 2.0
2019-Dec-03 22:15 290 5 8.7 2.0
2019-Dec-03 22:10 290 7 8.7 2.0
2019-Dec-03 22:05 290 6 8.7 2.0
2019-Dec-03 22:00 300 6 8.7 2.0
2019-Dec-03 21:55 290 6 8.7 2.0
2019-Dec-03 21:53 290 7 8.7 2.2
2019-Dec-03 21:50 290 6 8.7 2.0
2019-Dec-03 21:45 300 7 8.7 2.0
2019-Dec-03 21:40 290 6 8.7 2.0
2019-Dec-03 21:35 280 4 8.7 2.0
2019-Dec-03 21:30 300 6 8.7 3.0
2019-Dec-03 21:25 290 7 8.7 3.0
2019-Dec-03 21:20 290 5 8.7 3.0
2019-Dec-03 21:15 290 7 8.7 3.0
2019-Dec-03 21:10 290 5 8.7 3.0
2019-Dec-03 21:05 300 7 8.7 3.0